Date,TemperatureHighF,TemperatureAvgF,TemperatureLowF,DewpointHighF,DewpointAvgF,DewpointLowF,HumidityHigh,HumidityAvg,HumidityLow,PressureMaxIn,PressureMinIn,WindSpeedMaxMPH,WindSpeedAvgMPH,GustSpeedMaxMPH,PrecipitationSumIn
2013-1-1,20,13,2,14,9,1,96,86,65,30.34,30.11,11,5,13,0.00
2013-1-2,33,24,14,31,22,12,95,91,87,30.22,30.06,11,6,15,0.00
2013-1-3,30,23,18,29,20,14,95,91,83,30.70,30.22,19,8,24,0.00
2013-1-4,33,23,17,23,19,16,96,85,65,30.32,30.14,12,8,14,0.00
2013-1-5,29,23,16,26,20,15,97,87,76,30.23,30.00,21,9,27,0.00
2013-1-6,34,24,13,27,20,12,96,86,69,30.33,30.11,17,7,22,0.00
2013-1-7,39,32,25,31,27,24,96,82,71,30.11,29.96,16,7,23,0.00
2013-1-8,40,32,24,33,29,23,98,89,76,30.12,29.84,15,7,20,0.00
2013-1-9,48,37,27,35,31,25,94,81,56,30.44,28.52,12,4,14,0.00
2013-1-10,40,37,35,38,33,26,99,84,61,30.34,29.68,16,7,24,0.09
2013-1-11,53,41,28,53,41,27,99,99,99,29.72,29.38,19,9,31,0.01
2013-1-12,31,19,10,27,9,-62,99,85,2,30.14,29.72,20,12,27,0.00
2013-1-13,19,12,7,-56,-60,-64,2,2,2,30.34,30.14,16,7,19,0.00
2013-1-14,28,18,9,-50,-56,-62,2,2,2,30.48,30.34,11,4,14,0.00
2013-1-15,34,23,12,-46,-53,-60,2,2,2,30.35,29.18,13,6,19,0.00
2013-1-16,50,36,24,-35,-45,-52,2,2,2,30.25,29.92,14,10,20,0.00
2013-1-17,33,28,22,-46,-50,-54,2,2,2,30.47,30.25,10,4,13,0.00
2013-1-18,49,40,31,39,-26,-48,89,17,2,30.30,29.88,21,12,27,0.01
2013-1-19,51,39,21,34,29,14,84,68,49,30.35,29.86,22,10,27,0.01
2013-1-20,21,16,13,15,10,7,87,78,62,30.42,29.05,12,7,16,0.00
2013-1-21,15,9,3,11,1,-4,88,68,54,30.46,30.36,18,9,24,0.00
2013-1-22,20,14,10,14,9,3,92,82,70,31.75,30.24,7,3,11,0.01
2013-1-23,28,18,10,21,13,4,88,80,68,30.52,30.17,15,9,22,0.01
2013-1-24,19,10,2,9,2,-4,80,70,60,30.55,30.17,13,8,19,0.00
2013-1-25,46,28,16,29,20,9,87,70,48,30.24,30.12,13,6,17,0.00
2013-1-26,47,31,17,29,22,12,90,70,48,30.26,30.00,14,8,21,0.00
2013-1-27,42,38,35,41,36,26,98,91,60,30.00,29.69,18,7,25,0.07
2013-1-28,45,38,34,44,37,34,98,97,97,29.88,29.57,10,3,12,0.01
2013-1-29,40,34,31,39,32,28,98,94,87,29.71,29.54,20,11,27,0.00
2013-1-30,30,22,13,29,18,9,97,85,71,29.93,29.63,24,15,33,0.02
2013-1-31,13,5,-1,9,-2,-5,85,75,69,30.43,29.93,23,12,34,0.00
2013-2-1,27,14,-2,21,8,-6,87,78,71,30.44,30.04,20,9,27,0.00
2013-2-2,39,30,24,32,25,20,90,83,72,30.20,30.04,15,7,25,0.00
2013-2-3,42,33,20,31,25,16,84,73,59,30.22,29.77,19,10,24,0.00
2013-2-4,38,27,21,31,24,19,96,87,75,30.03,29.77,21,8,30,0.00
2013-2-5,49,37,26,34,29,25,95,75,48,30.07,29.83,17,8,23,0.00
2013-2-6,52,41,30,39,33,26,87,74,60,30.08,29.84,15,6,25,0.00
2013-2-7,41,33,29,37,30,24,94,87,83,30.25,29.88,20,12,30,0.00
2013-2-8,33,28,25,28,26,23,94,89,78,30.34,30.14,12,7,22,0.00
2013-2-9,48,37,28,38,32,27,95,84,66,30.16,29.68,19,12,33,0.00
2013-2-10,45,37,29,42,33,24,97,87,76,29.79,29.26,26,15,33,0.01
2013-2-11,33,29,24,26,24,21,89,80,71,30.15,29.79,19,11,32,0.00
2013-2-12,48,33,20,29,24,18,95,72,40,30.15,29.90,16,6,19,0.00
2013-2-13,53,39,26,33,28,23,90,68,42,29.92,29.72,17,7,19,0.00
2013-2-14,43,36,21,33,28,17,96,75,50,30.29,29.78,20,11,31,0.01
2013-2-15,31,23,15,24,18,12,96,81,56,30.37,30.29,13,7,22,0.05
2013-2-16,33,24,11,27,20,10,95,85,75,30.34,30.01,12,6,16,0.04
2013-2-17,54,39,25,36,29,21,87,70,51,30.01,29.56,17,6,24,0.00
2013-2-18,46,31,20,35,26,15,96,80,66,30.06,29.54,24,14,35,0.00
2013-2-19,24,15,8,16,6,3,85,69,43,30.38,30.05,21,13,29,0.00
2013-2-20,24,15,4,11,6,0,86,68,52,30.66,30.20,11,7,14,0.00
2013-2-21,24,22,20,21,16,10,96,81,61,30.25,29.84,16,11,23,0.13
2013-2-22,21,19,15,20,16,13,96,90,80,30.00,29.84,14,10,19,0.06
2013-2-23,37,23,9,29,19,8,95,84,67,30.00,29.83,13,7,21,0.00
2013-2-24,41,31,22,30,26,20,94,83,63,30.07,29.88,10,4,13,0.00
2013-2-25,34,28,25,29,26,24,96,91,81,30.11,29.96,11,8,15,0.00
2013-2-26,32,31,31,29,28,28,90,89,89,29.86,29.82,15,13,21,0.00
2013-2-27,35,32,28,28,26,25,88,81,70,30.11,30.02,24,18,30,0.00
2013-2-28,30,27,24,26,23,21,90,87,81,30.24,30.11,22,13,29,0.00
2013-3-1,27,25,23,22,20,18,92,83,73,30.36,30.23,18,11,25,0.00
2013-3-2,35,27,19,25,20,16,89,76,56,30.36,30.11,10,5,14,0.00
2013-3-3,39,33,26,30,27,23,90,79,69,30.11,29.72,13,7,23,0.00
2013-3-4,41,34,30,32,29,25,95,80,65,30.03,29.68,16,6,26,0.00
2013-3-5,32,27,23,27,20,18,84,77,66,30.39,30.02,27,17,41,0.00
2013-3-6,38,28,20,25,21,17,88,75,54,30.45,30.23,14,6,20,0.00
2013-3-7,49,35,24,32,26,20,86,72,48,30.28,30.11,13,9,21,0.00
2013-3-8,54,41,31,40,33,26,91,74,56,30.19,29.91,17,8,29,0.20
2013-3-9,54,45,35,51,43,34,96,91,85,29.92,29.54,21,7,31,0.39
2013-3-10,35,28,22,34,26,21,97,96,94,29.94,29.67,28,20,42,0.22
2013-3-11,31,24,20,23,20,16,96,84,67,29.99,29.88,20,10,28,0.01
2013-3-12,32,28,24,25,23,19,91,79,70,30.33,29.99,20,11,35,0.00
2013-3-13,37,27,17,24,20,15,93,75,54,30.46,30.25,10,5,17,0.00
2013-3-14,54,42,33,43,34,24,83,72,62,30.25,30.07,14,6,21,0.00
2013-3-15,58,46,38,45,39,36,93,79,58,30.07,29.73,12,7,18,0.00
2013-3-16,39,32,27,37,28,24,96,86,75,30.18,29.85,22,6,28,0.06
2013-3-17,44,33,23,35,26,20,95,77,56,30.17,29.74,13,5,20,0.03
2013-3-18,36,33,27,34,24,17,96,71,49,30.06,29.72,26,10,36,0.05
2013-3-19,49,31,20,29,20,15,82,65,37,30.33,30.05,21,8,25,0.00
2013-3-20,34,24,15,18,12,7,82,64,44,30.42,30.11,20,10,29,0.00
2013-3-21,32,26,20,21,16,14,80,65,49,30.11,29.93,9,5,15,0.00
2013-3-22,34,30,26,24,21,19,84,69,58,30.04,29.98,8,4,12,0.00
2013-3-23,38,32,28,30,26,23,96,81,59,30.13,30.03,16,8,21,0.03
2013-3-24,29,26,24,28,23,20,96,88,75,30.10,30.03,20,14,28,0.03
2013-3-25,30,26,23,25,23,20,96,88,73,30.34,30.08,21,14,27,0.00
2013-3-26,41,28,18,25,21,15,90,74,50,30.40,30.23,9,4,11,0.00
2013-3-27,52,39,27,34,28,23,85,65,44,30.29,30.17,11,5,21,0.00
2013-3-28,58,45,30,35,32,28,92,64,37,30.27,30.15,9,3,12,0.00
2013-3-29,68,53,36,40,35,32,87,56,27,30.23,30.03,13,5,19,0.00
2013-3-30,64,56,49,53,43,-100,94,68,37,30.06,29.90,16,5,22,0.22
2013-3-31,55,46,32,43,34,25,96,68,33,30.15,29.94,18,9,28,0.07
2013-4-1,39,30,20,30,22,18,97,75,46,30.35,30.15,15,8,21,0.08
2013-4-2,52,38,23,30,24,19,87,60,41,30.35,30.23,9,2,12,0.00
2013-4-3,56,42,31,31,27,24,75,56,37,30.36,30.20,16,5,23,0.00
2013-4-4,62,48,33,40,33,27,85,59,40,30.22,30.05,14,6,18,0.01
2013-4-5,68,51,33,41,35,29,88,58,29,30.18,29.71,19,7,26,0.01
2013-4-6,68,58,51,46,42,39,72,55,35,29.78,29.59,21,6,27,0.00
2013-4-7,73,56,43,50,44,39,89,66,32,29.86,29.62,14,4,18,0.20
2013-4-8,67,58,48,59,53,46,96,85,69,29.71,29.61,10,2,18,0.30
2013-4-9,63,45,33,59,44,32,96,94,88,29.96,29.57,22,5,37,0.84
2013-4-10,36,35,32,35,34,31,97,96,94,29.98,29.81,18,3,25,0.76
2013-4-11,35,32,29,34,30,28,97,94,87,29.81,29.66,14,4,19,0.11
2013-4-12,39,34,32,31,30,29,93,83,68,30.01,29.72,18,6,24,0.00
2013-4-13,52,41,28,39,33,26,91,75,60,30.04,29.69,10,3,20,0.00
2013-4-14,66,52,42,50,44,37,93,74,54,29.69,29.32,24,7,38,0.22
2013-4-15,45,39,31,37,31,26,94,72,61,30.09,29.67,13,8,20,0.00
2013-4-16,51,42,35,36,32,29,83,67,46,30.26,30.08,13,3,23,0.00
2013-4-17,46,41,36,41,38,34,96,88,67,30.18,29.72,21,7,32,0.80
2013-4-18,36,33,30,35,31,28,97,92,83,29.90,29.70,27,13,40,0.29
2013-4-19,44,35,28,28,25,22,85,68,48,30.11,29.88,20,11,29,0.01
2013-4-20,46,37,26,29,24,20,88,63,42,30.27,30.11,10,4,21,0.00
2013-4-21,66,54,45,50,39,29,93,60,39,30.16,29.98,24,6,35,0.24
2013-4-22,51,43,32,49,41,29,97,95,89,30.21,29.96,23,8,34,1.17
2013-4-23,38,32,28,29,26,23,90,77,63,30.28,30.15,22,12,33,0.01
2013-4-24,56,37,26,41,29,23,88,74,36,30.22,30.04,19,7,23,0.01
2013-4-25,68,50,33,38,34,30,87,60,29,30.27,30.00,18,6,27,0.01
2013-4-26,71,59,51,51,44,38,85,58,41,30.18,30.01,14,4,23,0.00
2013-4-27,69,55,44,52,47,43,95,77,48,30.20,29.93,8,3,13,0.00
2013-4-28,79,64,47,53,49,45,93,63,34,29.94,29.67,19,6,25,0.00
2013-4-29,83,67,54,56,51,46,82,60,29,29.76,29.47,16,4,23,0.00
2013-4-30,73,68,60,56,49,41,61,51,43,29.88,29.46,19,4,30,0.00
2013-5-1,61,41,32,44,37,31,97,87,48,30.41,29.88,22,12,34,0.82
2013-5-2,48,39,33,34,32,29,97,78,56,30.55,30.41,23,10,33,0.91
2013-5-3,46,39,31,34,31,28,90,75,58,30.41,30.04,20,11,29,0.00
2013-5-4,43,38,34,41,37,32,96,93,81,30.14,29.99,21,10,32,0.01
2013-5-5,54,46,40,49,44,39,96,90,80,30.18,30.10,12,4,16,0.01
2013-5-6,66,54,47,53,48,43,94,80,58,30.17,30.03,9,3,12,0.00
2013-5-7,73,60,46,61,51,39,99,73,60,30.08,29.93,13,3,16,0.09
2013-5-8,67,61,56,67,60,45,99,94,60,29.96,29.88,8,2,11,0.11
2013-5-9,66,58,55,64,39,-31,99,75,2,30.00,29.86,13,5,21,1.08
2013-5-10,68,56,47,64,36,-100,99,76,2,30.11,29.99,17,8,19,0.06
2013-5-11,58,53,46,-30,-33,-100,2,2,2,30.27,30.02,23,11,35,0.00
2013-5-12,65,52,36,65,44,-40,99,84,2,30.31,30.09,11,2,15,0.00
2013-5-13,82,66,48,73,55,40,99,70,36,30.10,29.82,20,8,28,0.00
2013-5-14,98,78,60,85,61,-18,88,66,2,29.83,29.61,23,8,30,0.00
2013-5-15,82,73,60,48,38,-20,60,34,2,29.93,29.76,15,6,25,0.00
2013-5-16,84,67,60,84,40,-100,99,73,44,29.86,29.74,15,5,21,0.00
2013-5-17,85,73,64,85,51,-100,99,82,2,29.89,29.80,12,4,17,0.00
2013-5-18,85,75,63,84,1,-27,99,22,2,29.88,29.68,19,6,26,0.03
2013-5-19,75,66,60,75,66,60,99,99,99,29.77,29.48,18,2,26,1.56
2013-5-20,75,65,57,75,65,57,99,99,99,29.64,29.48,19,7,30,0.01
2013-5-21,62,58,54,62,41,-33,99,80,2,29.71,29.58,16,10,22,0.00
2013-5-22,58,54,51,-30,-32,-34,2,2,2,29.97,29.71,16,10,23,0.04
2013-5-23,71,60,51,-22,-29,-34,2,2,2,30.22,29.97,21,8,26,0.01
2013-5-24,73,63,52,63,43,-33,71,62,2,30.29,30.01,19,7,27,0.00
2013-5-25,77,66,57,67,56,48,71,71,71,30.11,29.94,13,6,22,0.40
2013-5-26,78,68,63,68,58,53,71,71,71,29.99,29.83,14,4,23,0.01
2013-5-27,76,67,59,66,57,50,71,71,71,29.88,29.57,25,7,37,1.49
2013-5-28,78,70,60,68,60,51,71,71,71,29.71,29.60,12,6,19,0.48
2013-5-29,74,69,63,64,59,53,71,71,71,29.70,29.52,19,9,28,0.97
2013-5-30,74,66,61,64,56,52,71,71,71,29.61,29.48,19,10,30,1.08
2013-5-31,79,68,58,69,58,49,71,71,71,29.70,29.59,18,10,27,0.13
2013-6-1,62,57,54,52,48,45,71,71,71,30.04,29.65,22,13,32,0.00
2013-6-2,67,58,50,57,48,41,71,71,71,30.14,29.99,17,6,23,0.00
2013-6-3,75,63,51,65,54,42,71,71,71,30.04,29.81,17,6,30,0.00
2013-6-4,73,65,58,63,56,49,71,71,71,29.98,29.86,11,3,18,0.33
2013-6-5,71,64,57,61,54,48,71,71,71,30.05,29.96,14,8,20,0.01
2013-6-6,70,63,56,60,53,47,71,71,71,30.00,29.95,14,7,19,0.00
2013-6-7,72,62,52,62,53,43,71,71,71,30.05,29.88,10,4,12,0.00
2013-6-8,67,62,58,57,52,49,71,71,71,29.88,29.65,16,7,20,1.07
2013-6-9,68,63,60,58,53,51,71,71,71,29.83,29.70,16,9,22,0.26
2013-6-10,78,67,57,68,58,48,71,71,71,29.90,29.75,12,5,16,0.01
2013-6-11,82,73,68,72,63,58,71,71,71,29.82,29.73,20,3,26,0.00
2013-6-14,87,80,67,76,70,57,71,71,71,29.92,29.75,26,9,36,0.87
2013-7-8,84,78,82,71,61,-100,70,68,64,29.95,29.93,10,6,15,0.16
2013-7-9,92,84,75,73,70,67,83,65,47,29.99,29.87,12,6,22,0.04
2013-7-10,82,75,68,70,62,-100,90,67,51,30.11,29.98,14,6,21,0.00
2013-7-11,85,75,64,64,61,57,90,63,44,30.12,29.98,14,6,20,0.00
2013-7-12,89,79,69,69,64,59,71,61,50,30.02,29.92,18,10,26,0.00
2013-7-13,89,80,73,71,66,60,70,61,49,30.00,29.93,18,9,29,0.00
2013-7-14,85,78,70,66,61,57,71,57,40,30.18,30.00,14,7,24,0.00
2013-7-15,88,77,64,68,64,60,89,66,47,30.23,30.13,11,4,16,0.00
2013-7-16,89,80,70,67,65,62,87,63,43,30.27,30.19,12,5,15,0.00
2013-7-20,-200,0,200,-100,-100,-100,0,0,100,29.90,29.90,3,3,4,0.00
2013-7-22,86,78,75,72,66,62,76,68,60,29.88,29.77,11,7,17,0.03
2013-7-30,73,71,70,66,65,64,83,80,78,30.13,30.07,7,4,8,0.02
2013-7-31,84,73,62,70,64,61,95,74,50,30.16,30.05,8,3,11,0.01
2013-8-1,85,73,63,70,63,58,99,72,47,30.12,29.88,23,6,29,0.22
2013-8-2,82,74,66,69,65,55,92,75,60,30.05,29.87,15,7,20,0.22
2013-8-3,77,68,62,66,60,51,96,77,53,30.18,30.03,12,6,17,0.00
2013-10-18,44,38,34,44,38,34,99,99,99,30.17,30.08,10,6,14,0.00
2013-10-19,45,35,33,45,30,-100,99,95,99,30.02,29.84,10,6,12,0.00
2013-10-20,46,45,41,46,45,41,99,99,99,30.06,29.75,11,4,14,0.00
2013-10-21,45,36,31,45,36,31,99,99,99,30.16,29.97,9,5,12,0.00
2013-10-22,47,42,38,46,40,35,99,90,76,30.15,29.90,16,7,22,0.00
2013-10-23,47,39,33,41,37,32,97,92,76,30.23,30.09,10,4,14,0.04
2013-10-24,48,40,31,37,31,29,95,73,50,30.45,30.23,12,6,16,0.01
2013-12-7,12,4,-4,8,-3,-100,92,80,66,30.78,30.45,12,4,17,0.00
2013-12-8,18,13,8,16,12,7,97,94,87,30.43,30.03,9,5,17,0.00
2013-12-9,13,5,-3,9,1,-6,97,84,72,30.37,30.09,16,9,30,0.00
2013-12-10,28,22,14,27,16,9,98,79,68,30.29,30.07,18,7,26,0.00
2013-12-11,27,9,0,26,4,-3,95,82,74,30.71,30.28,23,9,28,0.00
2013-12-12,33,21,8,25,16,4,90,81,69,30.48,30.11,11,6,14,0.00
2013-12-13,33,25,18,28,22,17,96,90,78,30.11,29.93,15,5,23,0.00
2013-12-24,25,13,0,24,9,-5,96,86,74,30.57,30.14,21,6,27,0.00
2013-12-25,40,29,21,31,24,20,97,85,62,30.35,30.24,23,4,33,0.00
2013-12-26,47,35,24,29,26,22,92,70,46,30.29,30.14,0,0,1,0.00
2013-12-27,61,42,26,33,28,23,88,62,31,30.29,30.10,1,0,12,0.00
2013-12-28,59,39,15,34,26,-100,88,65,33,30.16,29.76,3,0,12,0.00
2013-12-29,13,7,2,9,-3,-8,85,65,43,30.44,30.20,0,0,2,0.00
2013-12-30,33,16,5,27,6,-3,78,63,55,30.32,30.08,9,4,22,0.00